Flag Weather past 2 weeks in Lafayette, Louisiana, U.S.A.

Now
68 °F

Fog.


Feels Like: 68 °F
Forecast: 48 / 63 °F
Wind: 10 mph from Southwest

Location: Lafayette Regional Airport

Current Time: Nov 24, 2014 at 1:20:30 AM

Latest Report: Nov 24, 2014 at 12:53 AM


Visibility: 6 mi

Pressure: 29.72 "Hg

Humidity: 93%

Dew point: 66 °F

Location of LafayetteLocation

Historic Weather in Lafayette — Graph

°F

Lafayette temperature yesterday

Maximum temperature yesterday: 73 °F (at 11:53 AM)
Minimum temperature yesterday: 63 °F (at 6:53 AM)
Average temperature yesterday: 68 °F

Past Weeks' High & Low Weather Summary

 TemperatureHumidityPressure
High79 °F (Nov 11, 11:53 AM)100% (Nov 16, 5:02 PM)30.53 "Hg (Nov 16, 5:02 PM)
Low30 °F (Nov 19, 1:53 AM)25% (Nov 19, 2:53 PM)29.60 "Hg (Nov 23, 2:53 PM)
Average53 °F70%30.14 "Hg
* Reported Nov 8 11:53 PM — Nov 23 11:53 PM, Lafayette, Weather by CustomWeather, © 2014

Note: Actual official high and low records may vary slightly from our data, if they occured in-between our weather recording intervals... More about our weather records

Advertising

Lafayette weather history for previous 24 hours

 ConditionsComfort  
Time TempWeatherWind HumidityBarometerVisibility
11:53 PM
Nov 23
68 °FLow clouds.10 mph93%29.72 "Hg7 mi
11:01 PM67 °FPassing clouds.8 mph93%29.72 "Hg7 mi
9:53 PM68 °FClear.12 mph90%29.70 "Hg9 mi
8:53 PM69 °FPassing clouds.14 mph90%29.68 "Hg9 mi
7:53 PM69 °FOvercast.10 mph90%29.66 "Hg10 mi
6:53 PM69 °FPassing clouds.12 mph90%29.64 "Hg10 mi
5:53 PM70 °FPassing clouds.17 mph84%29.62 "Hg10 mi
4:53 PM71 °FPassing clouds.14 mph78%29.61 "Hg10 mi
3:53 PM72 °FPassing clouds.15 mph71%29.61 "Hg10 mi
2:53 PM73 °FPassing clouds.18 mph69%29.60 "Hg10 mi
1:53 PM73 °FPassing clouds.21 mph64%29.61 "Hg10 mi
12:53 PM72 °FScattered clouds.23 mph68%29.62 "Hg10 mi
11:53 AM73 °FBroken clouds.26 mph69%29.64 "Hg10 mi
10:53 AM67 °FMostly cloudy.17 mph87%29.65 "Hg10 mi
10:01 AM67 °FPartly sunny.13 mph87%29.67 "Hg10 mi
8:53 AM64 °FPartly sunny.10 mphN/A29.66 "Hg10 mi
7:53 AM63 °FPassing clouds.12 mphN/A29.67 "Hg10 mi
6:53 AM63 °FBroken clouds.5 mphN/A29.63 "Hg10 mi
5:53 AM64 °FRain. Overcast.5 mphN/A29.65 "Hg5 mi
4:53 AM64 °FHeavy rain. Overcast.8 mphN/A29.66 "Hg4 mi
4:00 AM64 °FHeavy rain. Low clouds.9 mphN/A29.68 "Hg3 mi
2:53 AM65 °FLight rain. Fog.6 mph97%29.74 "Hg6 mi
2:01 AM65 °FLight rain. Mostly cloudy.6 mph94%29.76 "Hg9 mi
Weather by CustomWeather, © 2014

See weather overviewHow to use our weather pages